FW8212 Weather Reports


time (UTC)temp
C
wind
direction
speed
KPH
gust
KPH
rain 1hr
cm
rain 24hr
cm
rain mn
cm
humidity
%
barometer
mb
20260502194528 17 317 8.0 17.7 0.00 0.00 0.00 36 1017.0
20260502193029 17 317 9.7 19.3 0.00 0.00 0.00 35 1017.5
20260502191528 17 316 14.5 22.5 0.00 0.00 0.00 35 1017.6
20260502190029 16 316 12.9 25.7 0.00 0.00 0.00 37 1017.7
20260502184529 16 316 17.7 24.1 0.00 0.00 0.00 38 1017.7
20260502183029 16 315 16.1 25.7 0.00 0.00 0.00 39 1018.0
20260502181534 16 314 14.5 24.1 0.00 0.00 0.00 37 1018.0
20260502163028 16 290 16.1 24.1 0.00 0.00 0.00 35 1018.0
20260502161530 16 289 16.1 22.5 0.00 0.00 0.00 34 1017.9
20260502151528 15 278 16.1 24.1 0.00 0.00 0.00 31 1017.2
20260502123028 6 280 6.4 11.3 0.00 0.00 0.00 49 1016.4
20260502121531 7 280 6.4 12.9 0.00 0.00 0.00 45 1016.4
20260502114529 8 280 9.7 16.1 0.00 0.00 0.00 42 1016.2
20260502113028 8 280 12.9 16.1 0.00 0.00 0.00 42 1016.0
20260502111530 7 280 12.9 16.1 0.00 0.00 0.00 42 1016.1
20260502110031 7 280 12.9 16.1 0.00 0.00 0.00 43 1016.1
20260502104530 7 280 11.3 14.5 0.00 0.00 0.00 44 1016.1
20260502103031 7 280 4.8 6.4 0.00 0.00 0.00 43 1016.1
20260502101535 8 280 11.3 16.1 0.00 0.00 0.00 41 1016.3
20260502091530 8 280 14.5 17.7 0.00 0.00 0.00 42 1015.9
20260502071529 8 281 8.0 12.9 0.00 0.00 0.00 44 1016.4
20260502070028 8 281 11.3 16.1 0.00 0.00 0.00 42 1016.5
20260502064541 10 281 6.4 14.5 0.00 0.00 0.00 39 1016.3
20260502063035 10 0 0.0 9.7 0.00 0.00 0.00 37 1016.3
20260502061530 11 281 3.2 11.3 0.00 0.00 0.00 37 1016.4
20260502060029 10 0 0.0 0.0 0.00 0.00 0.00 41 1016.5
20260502054530 10 0 0.0 1.6 0.00 0.00 0.00 42 1016.5
20260502053028 10 0 0.0 0.0 0.00 0.00 0.00 46 1016.6
20260502051532 10 0 0.0 0.0 0.00 0.00 0.00 46 1016.6
20260502050028 10 0 0.0 0.0 0.00 0.00 0.00 47 1016.7
20260502044536 10 0 0.0 0.0 0.00 0.00 0.00 47 1016.7
20260502043028 11 0 0.0 0.0 0.00 0.00 0.00 45 1016.7
20260502041530 11 0 0.0 0.0 0.00 0.00 0.00 43 1016.7
20260502040039 12 0 0.0 0.0 0.00 0.00 0.00 38 1016.6
20260502034530 13 0 0.0 0.0 0.00 0.00 0.00 34 1016.6
20260502033030 13 0 0.0 1.6 0.00 0.00 0.00 33 1016.5
20260502031528 13 281 3.2 6.4 0.00 0.00 0.00 32 1016.4
20260502030030 14 0 0.0 0.0 0.00 0.00 0.00 33 1016.2
20260502024531 14 0 0.0 1.6 0.00 0.00 0.00 33 1016.1
20260502023028 15 0 0.0 1.6 0.00 0.00 0.00 33 1016.1
20260502021529 15 0 0.0 3.2 0.00 0.00 0.00 33 1016.1
20260502020028 17 0 0.0 1.6 0.00 0.00 0.00 33 1016.2
20260502014540 18 0 0.0 1.6 0.00 0.00 0.00 29 1016.2
20260502013028 19 281 4.8 16.1 0.00 0.00 0.00 25 1016.2
20260502011526 20 280 0.0 11.3 0.00 0.00 0.00 18 1016.2
20260502010033 20 280 6.4 12.9 0.00 0.00 0.00 17 1016.2
20260502004533 21 280 6.4 11.3 0.00 0.00 0.00 16 1016.4
20260502003027 21 0 0.0 0.0 0.00 0.00 0.00 19 1016.4
20260502001540 20 280 6.4 16.1 0.00 0.00 0.00 17 1016.7
20260502000027 21 280 6.4 17.7 0.00 0.00 0.00 16 1016.7
20260501234528 21 0 0.0 16.1 0.00 0.00 0.00 18 1016.6
20260501233028 21 0 0.0 9.7 0.00 0.00 0.00 18 1016.7
20260501231529 21 0 0.0 9.7 0.00 0.00 0.00 18 1016.8
20260501230030 20 280 4.8 16.1 0.00 0.00 0.00 17 1016.8
20260501224527 21 280 8.0 14.5 0.00 0.00 0.00 20 1017.0
20260501223030 21 280 12.9 27.4 0.00 0.00 0.00 20 1017.0
20260501221528 20 281 0.0 16.1 0.00 0.00 0.00 21 1017.1
20260501220030 20 281 1.6 20.9 0.00 0.00 0.00 20 1017.3
20260501214528 20 0 4.8 16.1 0.00 0.00 0.00 21 1017.4
20260501213029 20 0 0.0 14.5 0.00 0.00 0.00 20 1017.6
20260501211532 20 0 4.8 16.1 0.00 0.00 0.00 24 1017.8
20260501210033 20 0 0.0 22.5 0.00 0.00 0.00 22 1017.9
20260501204531 20 284 6.4 22.5 0.00 0.00 0.00 22 1017.7
20260501203034 19 291 0.0 17.7 0.00 0.00 0.00 21 1017.8
20260501201529 19 290 12.9 24.1 0.00 0.00 0.00 24 1017.9
20260501200031 19 284 11.3 22.5 0.00 0.00 0.00 23 1017.8